Regional Weather Roundup
Issued by NWS

Home | Current Version | Previous Version | Graphics & Text | Print | Product List | Glossary On
Versions: 1 2 3 4 5 6 7 8 9 10 11 12 13 14 15 16 17 18 19 20 21 22 23 24 25 26 27 28 29 30 31 32 33 34 35 36 37 38 39 40 41 42 43 44 45 46 47 48 49 50
000
ASUS43 KLMK 041802
RWRKY
KENTUCKY REGIONAL WEATHER ROUNDUP
NATIONAL WEATHER SERVICE LOUISVILLE KY
100 PM EST WED MAR 04 2015

NOTE "FAIR" INDICATES FEW OR NO CLOUDS BELOW 12,000 FEET
WITH NO SIGNIFICANT WEATHER AND/OR OBSTRUCTIONS TO VISIBILITY.

KYZ001>023-026-027-061>063-070>075-041900-
WESTERN AND SOUTH CENTRAL KENTUCKY

CITY           SKY/WX    TMP DP  RH WIND       PRES   REMARKS
PADUCAH        LGT RAIN  32  29  88 N15       30.09R FOG     WCI  22
HENDERSON      CLOUDY    30  25  80 N15       30.11R WCI  19
OWENSBORO      RAIN      35  33  92 N13       30.08S FOG     WCI  26
HOPKINSVILLE   DRIZZLE   37  35  94 N13G23    30.00S WCI  29
BOWLING GREEN  LGT RAIN  43  40  89 N9        29.98F FOG
GLASGOW        NOT AVBL
$$

KYZ024-025-028>034-038-045-046-053-041900-
NORTH CENTRAL KENTUCKY

CITY           SKY/WX    TMP DP  RH WIND       PRES   REMARKS
LOUISVILLE/SDF LGT RAIN  37  34  89 N12       30.03S FOG     WCI  29
LOUISVILLE/LOU LGT RAIN  36  32  85 N10       30.03S FOG     WCI  28
FORT KNOX      LGT RAIN  37  35  93 NW9       29.99S WCI  30
$$

KYZ035>037-039>044-047>052-055>060-089>105-041900-
NORTHEAST KENTUCKY

CITY           SKY/WX    TMP DP  RH WIND       PRES   REMARKS
LEXINGTON      LGT RAIN  39  37  92 N10       29.98S WCI  32
COVINGTON      CLOUDY    36  31  82 N8        30.00S WCI  30
FRANKFORT      LGT RAIN  37  34  89 NW9       30.00R FOG     WCI  30
$$

KYZ054-064>069-076>088-106>120-041900-
SOUTHEAST KENTUCKY

CITY           SKY/WX    TMP DP  RH WIND       PRES   REMARKS
JACKSON        LGT RAIN  50  49  96 SW3       29.93R VSB 1
LONDON         RAIN      52  49  89 CALM      29.92R FOG
SOMERSET       NOT AVBL
MIDDLESBORO    NOT AVBL
MONTICELLO     FOG       52  52 100 CALM      29.95S VSB 1/2
$$




USA.gov is the U.S. government's official web portal to all federal, state and local government web resources and services.